TimeCDT,TemperatureF,Dew PointF,Humidity,Sea Level PressureIn,VisibilityMPH,Wind Direction,Wind SpeedMPH,Gust SpeedMPH,PrecipitationIn,Events,Conditions,WindDirDegrees,DateUTC
12:54 AM,66.9,64.0,90,30.00,10.0,SE,3.5,-,N/A,,Clear,130,2013-10-12 05:54:00
1:54 AM,64.9,63.0,93,30.00,10.0,Calm,Calm,-,N/A,,Clear,0,2013-10-12 06:54:00
2:54 AM,64.0,62.1,93,29.99,10.0,Calm,Calm,-,N/A,,Clear,0,2013-10-12 07:54:00
3:54 AM,64.0,63.0,96,29.99,7.0,Calm,Calm,-,N/A,,Clear,0,2013-10-12 08:54:00
4:51 AM,64.4,62.6,94,30.01,1.5,Calm,Calm,-,N/A,,Clear,0,2013-10-12 09:51:00
4:54 AM,64.0,63.0,96,30.00,1.2,Calm,Calm,-,N/A,,Clear,0,2013-10-12 09:54:00
5:03 AM,64.4,62.6,94,30.02,0.8,Calm,Calm,-,N/A,,Clear,0,2013-10-12 10:03:00
5:12 AM,64.4,62.6,94,30.02,2.0,Calm,Calm,-,N/A,,Clear,0,2013-10-12 10:12:00
5:20 AM,64.4,62.6,94,30.03,6.0,Calm,Calm,-,N/A,,Clear,0,2013-10-12 10:20:00
5:26 AM,64.4,62.6,94,30.03,2.5,Calm,Calm,-,N/A,,Partly Cloudy,0,2013-10-12 10:26:00
5:34 AM,62.6,62.6,100,30.03,1.0,Calm,Calm,-,N/A,,Mist,0,2013-10-12 10:34:00
5:41 AM,62.6,60.8,94,30.04,0.2,Calm,Calm,-,N/A,Fog,Fog,0,2013-10-12 10:41:00
5:54 AM,63.0,62.1,97,30.04,0.2,Calm,Calm,-,N/A,Fog,Fog,0,2013-10-12 10:54:00
6:04 AM,62.6,62.6,100,30.05,0.2,Calm,Calm,-,N/A,Fog,Fog,0,2013-10-12 11:04:00
6:25 AM,62.6,60.8,94,30.05,1.0,Calm,Calm,-,N/A,,Mist,0,2013-10-12 11:25:00
6:32 AM,60.8,60.8,100,30.05,0.2,Calm,Calm,-,N/A,Fog,Fog,0,2013-10-12 11:32:00
6:51 AM,62.6,60.8,94,30.06,1.0,Calm,Calm,-,N/A,,Mist,0,2013-10-12 11:51:00
6:54 AM,62.1,61.0,96,30.05,1.0,Calm,Calm,-,N/A,,Mist,0,2013-10-12 11:54:00
7:18 AM,62.6,60.8,94,30.06,0.8,Calm,Calm,-,N/A,,Overcast,0,2013-10-12 12:18:00
7:54 AM,66.0,66.0,100,30.07,0.2,SSW,3.5,-,N/A,Fog,Fog,200,2013-10-12 12:54:00
8:02 AM,66.2,66.2,100,30.07,0.2,South,3.5,-,N/A,Fog,Fog,190,2013-10-12 13:02:00
8:34 AM,68.0,68.0,100,30.08,0.2,South,3.5,-,N/A,Fog,Fog,180,2013-10-12 13:34:00
8:44 AM,69.8,68.0,94,30.08,0.8,South,3.5,-,N/A,,Overcast,180,2013-10-12 13:44:00
8:49 AM,69.8,68.0,94,30.08,2.0,South,4.6,-,N/A,,Overcast,180,2013-10-12 13:49:00
8:54 AM,69.1,68.0,96,30.08,5.0,SSW,4.6,-,N/A,,Overcast,200,2013-10-12 13:54:00
9:21 AM,69.8,69.8,100,30.08,10.0,South,4.6,-,N/A,,Mostly Cloudy,180,2013-10-12 14:21:00
9:40 AM,71.6,69.8,94,30.08,10.0,South,4.6,-,N/A,,Scattered Clouds,180,2013-10-12 14:40:00
9:54 AM,75.0,69.1,82,30.07,10.0,SSE,4.6,-,N/A,,Clear,160,2013-10-12 14:54:00
10:54 AM,81.0,69.1,67,30.07,10.0,SW,5.8,-,N/A,,Partly Cloudy,220,2013-10-12 15:54:00
11:46 AM,82.4,69.8,66,30.08,10.0,Variable,6.9,-,N/A,,Mostly Cloudy,0,2013-10-12 16:46:00
11:54 AM,82.0,69.1,65,30.07,10.0,SW,6.9,-,N/A,,Mostly Cloudy,230,2013-10-12 16:54:00
12:08 PM,80.6,68.0,65,30.08,10.0,SW,5.8,-,N/A,,Scattered Clouds,220,2013-10-12 17:08:00
12:54 PM,84.0,68.0,58,30.05,10.0,Variable,6.9,-,N/A,,Scattered Clouds,0,2013-10-12 17:54:00
1:54 PM,84.9,68.0,57,30.03,10.0,Variable,3.5,-,N/A,,Scattered Clouds,0,2013-10-12 18:54:00
2:54 PM,84.0,66.0,55,30.02,10.0,WSW,3.5,-,N/A,,Mostly Cloudy,240,2013-10-12 19:54:00
3:54 PM,82.9,68.0,60,30.02,10.0,NNE,3.5,-,N/A,,Mostly Cloudy,30,2013-10-12 20:54:00
4:54 PM,73.9,66.9,79,30.04,10.0,NNE,11.5,24.2,0.00,,Overcast,30,2013-10-12 21:54:00
5:54 PM,72.0,68.0,87,30.03,10.0,South,9.2,-,0.00,,Mostly Cloudy,190,2013-10-12 22:54:00
6:54 PM,71.1,68.0,90,30.03,10.0,NE,3.5,-,0.00,,Mostly Cloudy,50,2013-10-12 23:54:00
7:54 PM,70.0,68.0,93,30.05,8.0,Calm,Calm,-,N/A,,Partly Cloudy,0,2013-10-13 00:54:00
8:54 PM,70.0,68.0,93,30.06,8.0,Calm,Calm,-,N/A,,Partly Cloudy,0,2013-10-13 01:54:00
9:54 PM,70.0,68.0,93,30.07,8.0,Calm,Calm,-,N/A,,Scattered Clouds,0,2013-10-13 02:54:00
10:54 PM,70.0,68.0,93,30.08,9.0,Calm,Calm,-,N/A,,Scattered Clouds,0,2013-10-13 03:54:00
11:54 PM,71.1,69.1,93,30.08,10.0,Calm,Calm,-,N/A,,Clear,0,2013-10-13 04:54:00